Weather History for KPSP - February, 2013

Change the Weather History Date:

Friday, February 8, 2013

  Actual Average Record
Temperature  
Mean Temperature 53 °F 59 °F  
Max Temperature 59 °F 71 °F 90 °F (1951)
Min Temperature 47 °F 47 °F 25 °F (1933)
Degree Days  
Heating Degree Days 12 6  
Month to date heating degree days 21 54  
Since 1 July heating degree days 597 681  
Cooling Degree Days 0 1  
Month to date cooling degree days 8 7  
Year to date cooling degree days 9 15  
Moisture  
Dew Point 36 °F    
Average Humidity 40    
Maximum Humidity 54    
Minimum Humidity 26    
Precipitation  
Precipitation 0.02 in 0.03 in 2.30 in (1932)
Month to date precipitation 0.02 0.17  
Year to date precipitation 0.63 1.17  
Since 1 July precipitation 1.85  
Snow  
Snow 0.00 in - - ()
Month to date snowfall 0.0  
Year to date snowfall 0.0  
Since 1 July snowfall 0.0  
Snow Depth 0.00 in    
Sea Level Pressure  
Sea Level Pressure 29.87 in    
Wind  
Wind Speed 9 mph (North)    
Max Wind Speed 32 mph    
Max Gust Speed 39 mph    
Visibility 10 miles    
Events Rain    
T = Trace of Precipitation, MM = Missing Value Source: NWS Daily Summary

Daily Weather History Graph

Daily Weather History Graph

Search for Another Location

Airport or City:

Trip Planner

Search our weather history database for the weather conditions in past years. The results will help you decide how hot, cold, wet, or windy it might be!

Date:

Astronomy

Feb. 08, 2013 Rise Set
Actual Time 6:36 AM PST 5:24 PM PST
Civil Twilight 6:11 AM PST 5:49 PM PST
Nautical Twilight 5:41 AM PST 6:19 PM PST
Astronomical Twilight 5:12 AM PST 6:48 PM PST
Moon 5:06 AM PST (2/8) 4:03 PM PST (2/8)
Length of Visible Light 11h 38m
Length of Day
10h 47m
Waning Crescent, 3% of the Moon is Illuminated
Feb 8
Waning Crescent
Feb 9
New
Feb 17
First Quarter
Feb 25
Full
Mar 4
Last Quarter

Hourly Weather History & Observations

Time (PST) Temp. Windchill Dew Point Humidity Pressure Visibility Wind Dir Wind Speed Gust Speed Precip Events Conditions
12:53 AM 55.0 °F - 37.0 °F 51% 29.84 in 10.0 mi SE 6.9 mph - N/A   Clear
1:53 AM 55.0 °F - 36.0 °F 49% 29.86 in 10.0 mi SE 9.2 mph - N/A   Clear
2:53 AM 53.1 °F - 37.0 °F 55% 29.85 in 10.0 mi NE 6.9 mph - N/A   Mostly Cloudy
3:53 AM 53.1 °F - 36.0 °F 52% 29.85 in 10.0 mi NNE 10.4 mph - N/A   Clear
4:53 AM 54.0 °F - 33.1 °F 45% 29.85 in 10.0 mi Calm Calm - N/A   Clear
5:53 AM 55.0 °F - 21.0 °F 27% 29.88 in 10.0 mi SW 13.8 mph 25.3 mph N/A   Partly Cloudy
6:53 AM 51.1 °F - 32.0 °F 48% 29.89 in 10.0 mi South 12.7 mph 25.3 mph N/A   Partly Cloudy
7:53 AM 53.1 °F - 30.9 °F 43% 29.90 in 10.0 mi East 10.4 mph - N/A   Scattered Clouds
9:53 AM 57.0 °F - 28.0 °F 33% 29.91 in 10.0 mi WSW 8.1 mph - N/A   Scattered Clouds
10:53 AM 57.0 °F - 36.0 °F 45% 29.91 in 10.0 mi NNW 19.6 mph 28.8 mph N/A   Partly Cloudy
11:53 AM 57.0 °F - 34.0 °F 42% 29.88 in 10.0 mi West 5.8 mph - N/A   Scattered Clouds
12:53 PM 55.9 °F - 35.1 °F 45% 29.86 in 10.0 mi NE 9.2 mph - 0.00 in   Scattered Clouds
1:20 PM 51.8 °F - 35.6 °F 54% 29.87 in 10.0 mi NW 28.8 mph 39.1 mph N/A   Mostly Cloudy
1:53 PM 48.0 °F - 41.0 °F 77% 29.88 in 10.0 mi NW 24.2 mph 38.0 mph 0.01 in Rain Light Rain
2:53 PM 50.0 °F - 37.9 °F 63% 29.88 in 10.0 mi West 9.2 mph - 0.00 in   Overcast
3:53 PM 46.9 °F - 39.0 °F 74% 29.87 in 10.0 mi NW 19.6 mph 25.3 mph 0.01 in Rain Light Rain
4:53 PM 46.9 °F - 37.9 °F 71% 29.87 in 10.0 mi East 3.5 mph - 0.00 in Rain Light Rain
5:53 PM 46.9 °F - 39.9 °F 77% 29.86 in 10.0 mi South 3.5 mph - 0.01 in Rain Light Rain
6:53 PM 46.9 °F - 37.9 °F 71% 29.86 in 10.0 mi SSE 4.6 mph - 0.00 in Rain Light Rain
7:53 PM 46.9 °F - 36.0 °F 66% 29.84 in 10.0 mi ENE 4.6 mph - 0.00 in   Clear
8:53 PM 46.0 °F 43.1 °F 39.0 °F 76% 29.85 in 10.0 mi NNW 5.8 mph - N/A   Partly Cloudy
9:53 PM 45.0 °F - 39.9 °F 82% 29.84 in 10.0 mi Calm Calm - N/A   Clear
10:53 PM 44.1 °F 42.5 °F 39.0 °F 82% 29.85 in 10.0 mi SW 3.5 mph - N/A   Clear
11:53 PM 42.1 °F - 37.9 °F 85% 29.86 in 10.0 mi Calm Calm - N/A   Clear